Location: Corsier
(46.2637°N, 6.2238°E)
Time: 07:46:20
(UTC+00:00)

Cosmos 1356 Rocket - Pass Details

Date: 07 June 2020
Orbit: 543 x 598 km, 81.2° (Epoch: 13 July)

Event Time Altitude Azimuth Distance (km) Brightness Sun altitude
Rises 00:07:22 0° 340° (NNW) 2,817 8.0 -20.5°
Reaches altitude 10° 00:09:43 10° 330° (NNW) 1,920 6.8 -20.5°
Maximum altitude 00:13:30 32° 267° (W) 1,035 4.6 -20.4°
Enters shadow 00:13:59 31° 253° (WSW) 1,056 4.5 -20.4°
